#timestamp,LO_Frequency,Hit,StdDev 
1667120415.6,286047001.4,N
1667120435.5,286047004.4,Y
1667120455.3,286047001.8,P
1667120475.1,286047003.8,P
1667120495.9,286047004.4,P
1667120515.7,286046999.9,N
1667120535.6,286047002.4,N
1667120555.4,286046999.7,N
1667120575.2,286047000.3,N
1667120595.1,286046999.5,N
1667120596.0,286046999.5,N
1667120615.8,286046998.9,N
1667120635.6,286046998.8,N
1667120655.5,286046998.1,N
1667120675.3,286046998.5,N
1667120695.2,286046999.0,N
1667120715.9,286047000.6,N
1667120735.7,286047001.2,N
1667120755.6,286047001.1,N
1667120775.4,286046998.3,N
1667120795.2,286046999.0,N
1667120815.1,286046997.5,N
1667120835.3,286046998.5,N
1667120855.2,286046999.9,N
1667120875.9,286046999.7,N
1667120895.7,286047001.3,N
1667120915.6,286047002.2,N
1667120935.4,286047004.4,N
1667120955.3,286047003.6,N
1667120975.1,286047003.4,N
1667120976.0,286047003.4,N
1667120995.8,286047005.5,N
1667121015.7,286047003.2,N
1667121035.5,286047003.4,N
1667121055.3,286047003.8,N
1667121075.2,286047006.0,N
1667121095.0,286047006.0,N
1667121095.9,286047006.0,N
1667121115.8,286047003.6,N
1667121135.6,286047005.5,N
1667121155.4,286047002.9,N
1667121175.3,286047003.2,N
1667121195.1,286047000.3,N
1667121215.8,286047002.7,N
1667121235.7,286047002.7,N
1667121255.5,286047002.7,N
1667121275.4,286047002.7,N
1667121295.2,286046999.7,N
1667121315.0,286046998.5,N
1667121315.9,286046998.5,N
1667121335.8,286047001.2,N
1667121355.6,286046998.2,N
1667121375.4,286047000.5,N
1667121395.3,286046998.3,N
1667121415.1,286046998.5,N
1667121435.9,286047001.0,N
1667121455.7,286047000.8,N
1667121475.5,286047000.2,N
1667121495.4,286047000.6,N
1667121515.2,286046999.9,N
1667121535.0,286047001.1,N
1667121536.0,286047001.1,N
1667121555.8,286046998.1,N
1667121575.6,286047002.5,N
1667121595.5,286047002.2,N
1667121615.3,286047000.0,N
1667121635.1,286046999.7,N
1667121655.9,286047000.6,N
1667121675.7,286047000.5,N
1667121695.6,286046999.9,N
1667121715.4,286047002.3,N
1667121735.2,286047002.7,N
1667121755.1,286047002.8,N
1667121756.0,286047002.8,N
1667121775.8,286047001.0,N
1667121795.6,286046998.5,N
1667121815.5,286046997.6,N
1667121835.3,286046997.3,N
1667121855.2,286046998.4,N
1667121875.9,286047001.1,N
1667121895.7,286047000.8,N
1667121915.6,286047000.6,N
1667121935.4,286047001.7,N
1667121955.2,286047001.6,N
1667121975.1,286047001.4,N
1667121976.0,286047001.4,N
1667121995.8,286047002.1,N
1667122015.7,286047001.3,N
1667122035.5,286047004.3,N
1667122055.3,286047004.0,N
1667122075.2,286047001.3,N
1667122095.0,286047001.8,N
1667122095.9,286047001.8,N
1667122115.8,286047003.9,N
1667122135.6,286047001.4,N
1667122155.4,286047003.2,N
1667122175.3,286047002.9,N
1667122195.1,286047003.8,N
1667122215.8,286047004.3,N
1667122235.7,286047003.7,N
1667122255.5,286047003.6,N
1667122275.4,286047001.9,N
1667122295.2,286047000.3,N
1667122315.0,286046998.5,N
1667122315.9,286046998.5,N
1667122335.8,286046996.5,N
1667122355.6,286046998.2,N
1667122375.4,286046998.2,N
1667122395.3,286046998.5,N
1667122415.1,286046998.5,N
1667122435.9,286047001.2,N
1667122455.7,286047000.0,N
1667122475.5,286047000.5,N
1667122495.4,286047002.6,N
1667122515.2,286047001.2,N
1667122535.0,286047002.5,N
1667122535.9,286047002.5,N
1667122555.8,286047001.6,N
1667122575.6,286047001.8,N
1667122595.5,286047001.7,N
1667122615.3,286047003.8,N
1667122635.1,286047001.3,N
1667122655.9,286047003.8,N
1667122675.7,286047004.1,N
1667122695.5,286047005.8,N
1667122715.4,286047002.0,N
1667122735.2,286047002.8,N
1667122755.1,286047001.9,N
1667122756.0,286047001.9,N
1667122775.8,286047004.1,N
1667122795.6,286047001.6,N
1667122815.5,286046999.8,N
1667122835.3,286047000.3,N
1667122855.1,286047002.7,N
1667122875.9,286047003.9,N
1667122895.7,286047001.3,N
1667122915.6,286047002.1,N
1667122935.4,286047001.5,N
1667122955.2,286047001.6,N
1667122975.1,286047001.9,N
1667122976.0,286047001.9,N
1667122995.8,286047002.7,N
1667123015.7,286046999.8,N
1667123035.5,286047002.3,N
1667123055.3,286046999.7,N
1667123075.2,286047002.6,N
1667123095.9,286046999.7,N
1667123115.7,286047000.5,N
1667123135.6,286047001.2,N
1667123155.4,286046998.8,N
1667123175.3,286047000.8,N
1667123195.1,286046998.6,N
1667123196.0,286046998.6,N
1667123215.8,286047000.6,N
1667123235.7,286047001.2,N
1667123255.5,286046999.2,N
1667123275.3,286046998.4,N
1667123295.2,286046998.5,N
1667123315.0,286047001.0,N
1667123315.9,286047001.0,N
1667123335.8,286047000.5,N
1667123355.6,286047002.4,N
1667123375.4,286047000.1,N
1667123395.3,286047000.4,N
1667123415.1,286046999.8,N
1667123435.9,286047000.0,N
1667123455.7,286047000.3,N
1667123475.5,286047001.2,N
1667123495.4,286047002.3,N
1667123515.2,286047002.4,N
1667123535.1,286047003.9,Y
1667123536.0,286047003.9,P
1667123555.8,286047001.4,N
1667123575.7,286047001.3,N
1667123595.5,286047001.9,N
1667123615.4,286047001.7,N
1667123635.2,286047004.2,Y
1667123655.0,286046998.2,P
1667123655.9,286046998.2,N
1667123675.8,286047001.0,N
1667123695.6,286047001.0,N
1667123715.5,286046998.7,N
1667123735.3,286046998.5,N
1667123755.1,286046998.8,N
1667123775.9,286046996.8,N
1667123795.7,286046997.0,N
1667123815.6,286046998.1,N
1667123835.4,286047000.8,N
1667123855.2,286046998.8,N
1667123875.1,286046996.6,N
1667123876.0,286046996.6,N
1667123895.8,286046997.2,N
1667123915.7,286046996.8,N
1667123935.5,286046999.3,N
1667123955.3,286046998.7,N
1667123975.2,286046998.8,N
1667123995.9,286046999.3,N
